Home > Weather > Bocholt > Past weeks

Flag for Germany Past Weather in Bocholt, North Rhine-Westphalia, Germany — Yesterday and Last 2 Weeks

Now
68 °F

Passing clouds.


Feels Like: 68 °F
Forecast: 59 / 73 °F
Wind: 5 mph from West

Location: Niederrhein

Current Time: Jul 26, 2016 at 10:39:40 AM

Latest Report: Jul 26, 2016 at 9:50 AM


Visibility: N/A

Pressure: 30.15 "Hg

Humidity: 69%

Dew Point: 57 °F

Location of BocholtLocation

Past Weather in Bocholt — Graph

°F

Bocholt Temperature Yesterday

Maximum temperature yesterday: 77 °F (at 3:50 PM)
Minimum temperature yesterday: 61 °F (at 5:20 AM)
Average temperature yesterday: 71 °F

High & Low Weather Summary for the Past Weeks

 TemperatureHumidityPressure
High95 °F (Jul 20, 4:50 PM)100% (Jul 13, 5:20 AM)30.30 "Hg (Jul 13, 5:20 AM)
Low48 °F (Jul 14, 4:50 AM)28% (Jul 20, 4:50 PM)29.80 "Hg (Jul 11, 9:50 AM)
Average70 °F70%30.06 "Hg
* Reported Jul 11 9:50 AM — Jul 26 9:20 AM, Bocholt, Weather by CustomWeather, © 2016

Note: Actual official high and low records may vary slightly from our data, if they occured in-between our weather recording intervals... More about our weather records

Advertising

Bocholt Weather History for the Previous 24 Hours

Scroll right to see more
 ConditionsComfort  
Time TempWeatherWind HumidityBarometerVisibility
9:20 AM
Tue, Jul 26
68 °FSunny.1 mph69%30.15 "Hg10 mi
8:50 AM66 °FSunny.No wind73%30.15 "Hg10 mi
8:20 AM66 °FSunny.No wind78%30.15 "Hg10 mi
7:50 AM61 °FSunny.No wind100%30.15 "Hg10 mi
7:20 AM59 °FClear.No wind100%30.12 "Hg10 mi
6:50 AM59 °FClear.2 mph100%30.12 "Hg10 mi
6:20 AM59 °FClear.No wind100%30.12 "Hg10 mi
5:50 AM59 °FClear.No wind94%30.12 "Hg10 mi
5:20 AM61 °FClear.No wind94%30.12 "Hg10 mi
4:50 AM61 °FClear.1 mph94%30.12 "Hg10 mi
11:50 PM
Mon, Jul 25
66 °FClear.No wind78%30.12 "Hg10 mi
11:20 PM66 °FSunny.2 mph78%30.12 "Hg10 mi
10:50 PM66 °FSunny.3 mph78%30.12 "Hg10 mi
9:50 PM68 °FPassing clouds.5 mph78%30.09 "HgN/A
9:20 PM70 °FSunny.3 mph78%30.09 "Hg10 mi
8:50 PM72 °FPassing clouds.5 mph73%30.09 "HgN/A
8:20 PM72 °FPassing clouds.5 mph78%30.09 "HgN/A
7:50 PM73 °FScattered clouds.5 mph74%30.09 "HgN/A
7:20 PM75 °FScattered clouds.8 mph69%30.09 "HgN/A
6:50 PM75 °FPassing clouds.9 mph69%30.09 "HgN/A
6:20 PM75 °FPassing clouds.6 mph69%30.09 "HgN/A
5:50 PM75 °FScattered clouds.9 mph65%30.09 "HgN/A
5:20 PM77 °FScattered clouds.10 mph65%30.07 "HgN/A
4:50 PM75 °FScattered clouds.12 mph69%30.07 "HgN/A
4:20 PM75 °FScattered clouds.13 mph69%30.09 "HgN/A
3:50 PM77 °FPassing clouds.10 mph65%30.09 "HgN/A
3:20 PM75 °FScattered clouds.12 mph69%30.09 "HgN/A
2:50 PM73 °FPartly sunny.13 mph74%30.09 "HgN/A
2:20 PM73 °FPartly sunny.10 mph74%30.09 "HgN/A
1:50 PM73 °FPartly sunny.10 mph74%30.09 "HgN/A
1:20 PM73 °FPartly sunny.10 mph74%30.09 "HgN/A
12:50 PM75 °FScattered clouds.9 mph69%30.09 "HgN/A
12:20 PM73 °FScattered clouds.9 mph69%30.09 "HgN/A
11:50 AM73 °FPassing clouds.8 mph69%30.09 "HgN/A
11:20 AM72 °FPassing clouds.8 mph73%30.09 "HgN/A
10:50 AM72 °FSunny.9 mph73%30.09 "Hg10 mi
10:20 AM72 °FPassing clouds.7 mph73%30.09 "HgN/A
Weather by CustomWeather, © 2016

See weather overviewHow to use our weather pages